Tracking 27112 objects as of 26-Mar-2023
HD Live streaming from Space Station
objects crossing your sky now

STARLINK-1877

Track STARLINK-1877 now!
10-day predictions
STARLINK-1877 is classified as:


NORAD ID: 47162
Int'l Code: 2020-088AS
Perigee: 553.1 km
Apogee: 555.7 km
Inclination: 53.1 °
Period: 95.6 minutes
Semi major axis: 6925 km
RCS: Unknown
Launch date: November 25, 2020
Source: United States (US)
Launch site: AIR FORCE EASTERN TEST RANGE (AFETR)
Your satellite tracking list
Your tracking list is empty




NASA's NSSDC Master Catalog

Two Line Element Set (TLE):
1 47162U 20088AS  23085.10666045 -.00001721  00000-0 -96734-4 0  9990
2 47162  53.0520 108.0528 0001834  89.9245 270.1954 15.06381233129376
Source of the keplerian elements: AFSPC